AirNav   Air Wisconsin pilot careers
 
 968 users online  

AL05 Sehoy Airport
Hurtsboro, Alabama, USA


FAA INFORMATION EFFECTIVE 07 DECEMBER 2017

Location

FAA Identifier: AL05
Lat/Long: 32-13-16.8096N / 085-28-18.4188W
32-13.280160N / 085-28.306980W
32.2213360 / -85.4717830
(estimated)
Elevation: 331 ft. / 101 m (estimated)
Variation: 01E (1985)
From city: 3 miles SW of HURTSBORO, AL
Time zone: UTC -6 (UTC -5 during Daylight Saving Time)
Zip code: 36860

Airport Operations

Airport use: Private use. Permission required prior to landing
Control tower: no
ARTCC: ATLANTA CENTER
FSS: ANNISTON FLIGHT SERVICE STATION
Attendance: UNATNDD
Wind indicator: lighted
Segmented circle: yes
Lights: RWY LGTS ON REQ; MON-FRI FROM 0730 TO 1530 CALL 334-253-2100. AFTER HRS AND WKENDS CALL 706-773-3167.
Beacon: white-green (lighted land airport)
ROTG BCN ON REQ; MON-FRI FROM 0730 TO 1530 CALL 334-253-2100. AFTER HRS AND WKENDS CALL 706-773-3167.

Nearby radio navigation aids

VOR radial/distance  VOR name  Freq  Var
TGEr146/18.7TUSKEGEE VOR/DME117.3002E
EUFr311/23.8EUFAULA VORTAC109.2002E
LSFr257/25.2LAWSON VOR/DME111.4002W
CSGr223/33.0COLUMBUS VORTAC117.1001E

 
NDB name  Hdg/Dist  Freq  Var  ID
LAWSON261/23.233502WAWS .- .-- ...
BLOOD058/39.936504WTOI - --- ..

Airport Services

Parking: hangars

Runway Information

Runway 4/22

Dimensions: 5000 x 75 ft. / 1524 x 23 m
Surface: asphalt, in good condition
Runway edge lights: medium intensity
RUNWAY 4  RUNWAY 22
Latitude: 32-12.963720N32-13.596600N
Longitude: 085-28.617360W085-27.996600W
Elevation: 331.0 ft.324.0 ft.
Traffic pattern: leftleft
Markings: basic, in good conditionbasic, in good condition
Visual slope indicator: 2-box VASI on left2-box VASI on left
Touchdown point: yes, no lightsyes, no lights
Obstructions: 52 ft. trees, 800 ft. from runway, 300 ft. left of centerline, 11:1 slope to clear57 ft. trees, 750 ft. from runway, 275 ft. left of centerline, 9:1 slope to clear

Airport Ownership and Management from official FAA records

Ownership: Privately-owned
Owner: STEVE WILLIAMS
6475 OLD WEST POINT ROAD
LA GRANGE, GA 30240
Phone 706-884-6398
Manager: STEVE WILLIAMS
6475 OLD WEST POINT ROAD
LA GRANGE, GA 30240
Phone 706-884-6398

Airport Operational Statistics

Aircraft operations: avg 22/month *
92% local general aviation
8% transient general aviation
* for 12-month period ending 07 February 1990

Instrument Procedures

There are no published instrument procedures at AL05.

Some nearby airports with instrument procedures:

06A - Moton Field Municipal Airport (18 nm NW)
11A - Clayton Municipal Airport (20 nm S)
KAUO - Auburn University Regional Airport (24 nm N)
KEUF - Weedon Field Airport (24 nm SE)
KLSF - Lawson Army Airfield (Fort Benning) (25 nm E)
 
Loc | Ops | Rwys | IFR | FBO | Links
Com | Nav | Svcs | Stats | Notes


 
Area around AL05 (Sehoy Airport)
 
Road maps at: MapQuest Bing Google
 
Aerial photo
WARNING: Photo may not be current or correct
Aerial photo of AL05 (Sehoy Airport)
Photo courtesy of AirNav, LLC
Photo taken 05-May-2011
looking west.

Do you have a better or more recent aerial photo of Sehoy Airport that you would like to share? If so, please send us your photo.

 
Sectional chart

 
Airport distance calculator
Flying to Sehoy Airport? Find the distance to fly.

From to AL05

Sunrise and sunset
Times for 11-Dec-2017
 Local
(UTC-6)
 Zulu
(UTC)
Morning civil twilight06:0712:07
Sunrise06:3412:34
Sunset16:3622:36
Evening civil twilight17:0323:03

Current date and time
Zulu (UTC)  12-Dec-2017 00:53:30
Local (UTC-6)  11-Dec-2017 18:53:30
 
METAR
KEUF 
24nm SE 
112358Z AUTO 20003KT 10SM CLR 09/04 A3006 RMK AO2 SLP181 T00940039 10194 20094 58007
KAUO 
24nm N 
112356Z AUTO 19003KT 10SM CLR 11/02 A3006 RMK AO2 SLP204 T01110022 10161 20111 56008
KLSF 
25nm E 
112356Z AUTO 16004KT 10SM CLR 09/03 A3005 RMK AO2 SLP183 T00870033 10184 20087 57006
KCSG 
32nm NE 
112351Z 24005KT 10SM CLR 13/01 A3006 RMK AO2 SLP178 T01330011 10183 20128 56006
KTOI 
36nm SW 
112353Z AUTO 20004KT 10SM CLR 10/04 A3008 RMK AO2 SLP186 T01000039 10178 20100 58009
KMXF 
46nm W 
112356Z AUTO 00000KT 10SM CLR 09/04 A3004 RMK AO2 SLP176 T00860042 10182 20083 57009 $
KMGM 
47nm W 
112353Z 20004KT 10SM CLR 13/01 A3006 RMK AO2 SLP179 T01280011 10183 20117 58009
TAF
KLSF 
25nm E 
111700Z 1117/1223 24006KT 9999 SKC QNH2995INS BECMG 1214/1215 31012G18KT 9999 SKC QNH3002INS TX14/1120Z TN06/1211Z
NOTAMs
Click for the latest NOTAMs
NOTAMs are issued by the DoD/FAA and will open in a separate window not controlled by AirNav.

 

 
 

Would you like to see your business listed on this page?

 If your business provides an interesting product or service to pilots, flight crews, aircraft, or users of the Sehoy Airport, you should consider listing it here.  To start the listing process, click on the button below
 
Add a business
 

Other Pages about Sehoy Airport

Update a link
 
Copyright © AirNav, LLC. All rights reserved. Privacy Policy  Contact